Time,TemperatureF,DewpointF,PressureIn,WindDirection,WindDirectionDegrees,WindSpeedMPH,WindSpeedGustMPH,Humidity,HourlyPrecipIn,Conditions,Clouds,dailyrainin,SoftwareType,DateUTC
2013-08-26 00:14:00,64.0,58.0,30.28,SE,125,1.0,-999.0,80,-99.99,,,-99.99,,2013-08-26 04:14:00,
2013-08-26 00:53:00,64.0,57.0,30.27,SE,125,1.0,-999.0,79,-99.99,,,-99.99,,2013-08-26 04:53:00,
2013-08-26 01:13:00,63.0,57.0,30.27,SE,125,1.0,-999.0,80,-99.99,,,-99.99,,2013-08-26 05:13:00,
2013-08-26 01:23:00,63.0,57.0,30.26,SE,125,1.0,-999.0,81,-99.99,,,-99.99,,2013-08-26 05:23:00,
2013-08-26 01:44:00,63.0,57.0,30.26,SE,125,1.0,-999.0,81,-99.99,,,-99.99,,2013-08-26 05:44:00,
2013-08-26 01:52:00,62.0,56.0,30.25,SE,125,0.0,-999.0,81,-99.99,,,-99.99,,2013-08-26 05:52:00,
2013-08-26 02:12:00,62.0,56.0,30.25,SE,125,0.0,-999.0,81,-99.99,,,-99.99,,2013-08-26 06:12:00,
2013-08-26 02:22:00,62.0,56.0,30.24,SE,125,1.0,-999.0,80,-99.99,,,-99.99,,2013-08-26 06:22:00,
2013-08-26 02:42:00,62.0,56.0,30.25,SE,125,3.0,-999.0,81,-99.99,,,-99.99,,2013-08-26 06:42:00,
2013-08-26 02:52:00,62.0,56.0,30.25,SE,125,1.0,-999.0,81,-99.99,,,-99.99,,2013-08-26 06:52:00,
2013-08-26 03:12:00,62.0,56.0,30.24,SE,125,0.0,-999.0,82,-99.99,,,-99.99,,2013-08-26 07:12:00,
2013-08-26 03:22:00,62.0,56.0,30.24,SE,125,0.0,-999.0,82,-99.99,,,-99.99,,2013-08-26 07:22:00,
2013-08-26 03:42:00,62.0,56.0,30.24,SE,125,1.0,-999.0,82,-99.99,,,-99.99,,2013-08-26 07:42:00,
2013-08-26 03:52:00,62.0,56.0,30.24,SE,125,1.0,-999.0,81,-99.99,,,-99.99,,2013-08-26 07:52:00,
2013-08-26 04:12:00,62.0,56.0,30.23,SE,125,1.0,-999.0,82,-99.99,,,-99.99,,2013-08-26 08:12:00,
2013-08-26 04:22:00,62.0,57.0,30.22,SE,125,1.0,-999.0,83,-99.99,,,-99.99,,2013-08-26 08:22:00,
2013-08-26 04:52:00,62.0,57.0,30.21,SE,125,2.0,-999.0,84,-99.99,,,-99.99,,2013-08-26 08:52:00,
2013-08-26 05:11:00,62.0,57.0,30.22,SE,125,2.0,-999.0,84,-99.99,,,-99.99,,2013-08-26 09:11:00,
2013-08-26 05:22:00,61.0,56.0,30.21,SE,125,0.0,-999.0,84,-99.99,,,-99.99,,2013-08-26 09:22:00,
2013-08-26 05:53:00,61.0,56.0,30.21,SE,125,1.0,-999.0,85,-99.99,,,-99.99,,2013-08-26 09:53:00,
2013-08-26 06:13:00,61.0,56.0,30.21,SE,125,1.0,-999.0,85,-99.99,,,-99.99,,2013-08-26 10:13:00,
2013-08-26 06:23:00,61.0,57.0,30.21,SE,125,1.0,-999.0,86,-99.99,,,-99.99,,2013-08-26 10:23:00,
2013-08-26 06:42:00,61.0,57.0,30.21,SE,125,1.0,-999.0,87,-99.99,,,-99.99,,2013-08-26 10:42:00,
2013-08-26 06:52:00,61.0,57.0,30.22,SE,125,1.0,-999.0,88,-99.99,,,-99.99,,2013-08-26 10:52:00,
2013-08-26 07:12:00,61.0,57.0,30.22,SE,125,1.0,-999.0,88,-99.99,,,-99.99,,2013-08-26 11:12:00,
2013-08-26 07:22:00,61.0,57.0,30.22,SE,125,0.0,-999.0,88,-99.99,,,-99.99,,2013-08-26 11:22:00,
2013-08-26 07:52:00,61.0,58.0,30.22,SE,125,0.0,-999.0,89,-99.99,,,-99.99,,2013-08-26 11:52:00,
2013-08-26 08:12:00,61.0,58.0,30.22,SE,125,1.0,-999.0,89,-99.99,,,-99.99,,2013-08-26 12:12:00,
2013-08-26 08:22:00,61.0,58.0,30.21,SE,125,1.0,-999.0,89,-99.99,,,-99.99,,2013-08-26 12:22:00,
2013-08-26 08:52:00,62.0,58.0,30.22,SE,125,2.0,-999.0,88,-99.99,,,-99.99,,2013-08-26 12:52:00,
2013-08-26 09:12:00,63.0,59.0,30.22,SE,125,1.0,-999.0,87,-99.99,,,-99.99,,2013-08-26 13:12:00,
2013-08-26 09:22:00,64.0,59.0,30.20,SE,125,1.0,-999.0,85,-99.99,,,-99.99,,2013-08-26 13:22:00,
2013-08-26 09:42:00,65.0,60.0,30.21,SE,125,3.0,-999.0,84,-99.99,,,-99.99,,2013-08-26 13:42:00,
2013-08-26 09:52:00,65.0,60.0,30.22,SE,125,4.0,-999.0,84,-99.99,,,-99.99,,2013-08-26 13:52:00,
2013-08-26 10:11:00,66.0,61.0,30.21,SE,130,3.0,-999.0,83,-99.99,,,-99.99,,2013-08-26 14:11:00,
2013-08-26 10:22:00,67.0,62.0,30.20,SE,131,4.0,-999.0,83,-99.99,,,-99.99,,2013-08-26 14:22:00,
2013-08-26 10:42:00,68.0,62.0,30.20,SE,136,2.0,-999.0,82,-99.99,,,-99.99,,2013-08-26 14:42:00,
2013-08-26 10:52:00,70.0,64.0,30.20,SSE,148,2.0,-999.0,80,-99.99,,,-99.99,,2013-08-26 14:52:00,
2013-08-26 11:12:00,70.0,64.0,30.19,SSE,152,3.0,-999.0,80,-99.99,,,-99.99,,2013-08-26 15:12:00,
2013-08-26 11:22:00,71.0,63.0,30.19,SW,236,5.0,-999.0,77,-99.99,,,-99.99,,2013-08-26 15:22:00,
2013-08-26 11:47:00,72.0,64.0,30.18,SW,236,3.0,-999.0,77,-99.99,,,-99.99,,2013-08-26 15:47:00,
2013-08-26 11:59:00,73.0,64.0,30.17,SW,236,4.0,-999.0,74,-99.99,,,-99.99,,2013-08-26 15:59:00,
2013-08-26 12:17:00,74.0,66.0,30.16,SW,236,2.0,-999.0,75,-99.99,,,-99.99,,2013-08-26 16:17:00,
2013-08-26 12:29:00,76.0,66.0,30.16,WSW,240,4.0,-999.0,71,-99.99,,,-99.99,,2013-08-26 16:29:00,
2013-08-26 12:48:00,77.0,66.0,30.16,WSW,240,3.0,-999.0,70,-99.99,,,-99.99,,2013-08-26 16:48:00,
2013-08-26 12:59:00,77.0,67.0,30.15,WSW,250,6.0,-999.0,71,-99.99,,,-99.99,,2013-08-26 16:59:00,
2013-08-26 13:12:00,78.0,67.0,30.15,WSW,253,4.0,-999.0,68,-99.99,,,-99.99,,2013-08-26 17:12:00,
2013-08-26 13:24:00,79.0,67.0,30.14,WSW,253,1.0,-999.0,66,-99.99,,,-99.99,,2013-08-26 17:24:00,
2013-08-26 13:43:00,81.0,66.0,30.13,WSW,253,2.0,-999.0,61,-99.99,,,-99.99,,2013-08-26 17:43:00,
2013-08-26 13:53:00,81.0,66.0,30.12,SSW,206,2.0,-999.0,60,-99.99,,,-99.99,,2013-08-26 17:53:00,
2013-08-26 14:12:00,81.0,67.0,30.11,West,261,4.0,-999.0,62,-99.99,,,-99.99,,2013-08-26 18:12:00,
2013-08-26 14:22:00,81.0,66.0,30.10,WSW,258,5.0,-999.0,60,-99.99,,,-99.99,,2013-08-26 18:22:00,
2013-08-26 14:52:00,82.0,66.0,30.09,West,267,4.0,-999.0,59,-99.99,,,-99.99,,2013-08-26 18:52:00,
2013-08-26 15:11:00,83.0,66.0,30.08,WSW,257,3.0,-999.0,57,-99.99,,,-99.99,,2013-08-26 19:11:00,
2013-08-26 15:22:00,82.0,65.0,30.07,West,259,4.0,-999.0,56,-99.99,,,-99.99,,2013-08-26 19:22:00,
2013-08-26 15:42:00,82.0,66.0,30.06,West,271,4.0,-999.0,58,-99.99,,,-99.99,,2013-08-26 19:42:00,
2013-08-26 15:52:00,82.0,66.0,30.05,West,271,3.0,-999.0,58,-99.99,,,-99.99,,2013-08-26 19:52:00,
2013-08-26 16:11:00,82.0,66.0,30.05,South,186,3.0,-999.0,59,-99.99,,,-99.99,,2013-08-26 20:11:00,
2013-08-26 16:22:00,81.0,65.0,30.04,SSW,207,3.0,-999.0,59,-99.99,,,-99.99,,2013-08-26 20:22:00,
2013-08-26 16:43:00,81.0,66.0,30.03,SSW,198,2.0,-999.0,61,-99.99,,,-99.99,,2013-08-26 20:43:00,
2013-08-26 16:52:00,82.0,67.0,30.02,SSE,168,5.0,-999.0,61,-99.99,,,-99.99,,2013-08-26 20:52:00,
2013-08-26 17:22:00,82.0,66.0,30.01,SW,219,3.0,-999.0,59,-99.99,,,-99.99,,2013-08-26 21:22:00,
2013-08-26 17:55:00,82.0,68.0,30.01,SSW,194,3.0,-999.0,62,-99.99,,,-99.99,,2013-08-26 21:55:00,
2013-08-26 18:16:00,82.0,69.0,30.00,South,177,3.0,-999.0,64,-99.99,,,-99.99,,2013-08-26 22:16:00,
2013-08-26 18:26:00,81.0,69.0,30.00,South,170,2.0,-999.0,66,-99.99,,,-99.99,,2013-08-26 22:26:00,
2013-08-26 18:42:00,81.0,69.0,30.00,South,171,2.0,-999.0,67,-99.99,,,-99.99,,2013-08-26 22:42:00,
2013-08-26 18:53:00,81.0,69.0,30.00,South,171,1.0,-999.0,67,-99.99,,,-99.99,,2013-08-26 22:53:00,
2013-08-26 19:13:00,80.0,69.0,30.00,South,171,2.0,-999.0,69,-99.99,,,-99.99,,2013-08-26 23:13:00,
2013-08-26 19:22:00,79.0,69.0,30.00,South,171,1.0,-999.0,71,-99.99,,,-99.99,,2013-08-26 23:22:00,
2013-08-26 19:52:00,76.0,68.0,30.00,South,171,2.0,-999.0,76,-99.99,,,-99.99,,2013-08-26 23:52:00,
2013-08-26 20:11:00,76.0,68.0,30.00,South,171,3.0,-999.0,76,-99.99,,,-99.99,,2013-08-27 00:11:00,
2013-08-26 20:22:00,75.0,68.0,29.99,South,171,5.0,-999.0,78,-99.99,,,-99.99,,2013-08-27 00:22:00,
2013-08-26 20:42:00,74.0,67.0,29.99,South,171,5.0,-999.0,79,-99.99,,,-99.99,,2013-08-27 00:42:00,
2013-08-26 20:52:00,74.0,67.0,30.00,South,171,4.0,-999.0,80,-99.99,,,-99.99,,2013-08-27 00:52:00,
2013-08-26 21:12:00,73.0,67.0,30.00,South,171,4.0,-999.0,81,-99.99,,,-99.99,,2013-08-27 01:12:00,
2013-08-26 21:22:00,73.0,67.0,30.00,South,171,3.0,-999.0,81,-99.99,,,-99.99,,2013-08-27 01:22:00,
2013-08-26 21:42:00,73.0,67.0,30.00,South,171,4.0,-999.0,82,-99.99,,,-99.99,,2013-08-27 01:42:00,
2013-08-26 21:52:00,73.0,68.0,29.99,South,171,1.0,-999.0,83,-99.99,,,-99.99,,2013-08-27 01:52:00,
2013-08-26 22:12:00,73.0,67.0,29.99,South,171,0.0,-999.0,82,-99.99,,,-99.99,,2013-08-27 02:12:00,
2013-08-26 22:22:00,73.0,67.0,29.99,South,171,1.0,-999.0,82,-99.99,,,-99.99,,2013-08-27 02:22:00,
2013-08-26 22:42:00,73.0,67.0,29.99,South,171,2.0,-999.0,81,-99.99,,,-99.99,,2013-08-27 02:42:00,
2013-08-26 22:52:00,73.0,66.0,29.99,South,171,2.0,-999.0,80,-99.99,,,-99.99,,2013-08-27 02:52:00,
2013-08-26 23:12:00,73.0,66.0,29.99,South,171,2.0,-999.0,79,-99.99,,,-99.99,,2013-08-27 03:12:00,
2013-08-26 23:23:00,73.0,66.0,29.98,South,173,2.0,-999.0,80,-99.99,,,-99.99,,2013-08-27 03:23:00,
2013-08-26 23:44:00,73.0,66.0,29.98,South,173,2.0,-999.0,80,-99.99,,,-99.99,,2013-08-27 03:44:00,
2013-08-26 23:58:00,73.0,66.0,29.97,South,173,1.0,-999.0,80,-99.99,,,-99.99,,2013-08-27 03:58:00,